Location: Songkhla
(7.2000°N, 100.6000°E)
Time: 04:07:59
(UTC+07:00)

Daily predictions for brighter satellites

Satellite Brightness Start Highest point End
(mag) Time Altitude Azimuth Time Altitude Azimuth Time Altitude Azimuth
CZ-4C R/B 4.0 03:55:07 14° N 04:01:35 44° ENE 04:09:10 10° SE
CZ-3 R/B 4.2 03:50:01 29° NW 04:03:21 44° N 04:12:26 10° ENE
Delta 168 4.0 04:05:57 58° NE 04:05:57 58° NE 04:09:48 10° ENE
Cosmos 2154 Rocket 4.1 04:09:46 10° N 04:16:02 75° E 04:22:16 10° S
Cosmos 1833 4.4 04:14:42 42° N 04:16:34 69° ENE 04:22:11 10° SSE
Yuri Rocket 3.5 04:16:26 72° SSW 04:16:52 78° SSE 04:23:37 10° ENE
Cosmos 44 Rocket 3.7 04:20:59 45° N 04:22:18 63° ENE 04:27:18 10° SSE
GPS 2-18 Rocket1 3.5 04:27:30 63° ESE 04:27:30 63° ESE 04:31:10 10° ENE
BLOCK DM-SL R/B 4.1 04:27:32 17° SSE 04:27:32 17° SSE 04:29:46 10° ESE
IRS-1C Rocket 3.9 04:26:02 10° N 04:31:16 73° WNW 04:36:30 10° SSW
Cosmos 1610 Rocket 4.5 04:32:41 46° WNW 04:33:48 51° W 04:39:43 10° SSW
BREEZE-M DEB (TANK) 3.8 04:31:28 23° NW 04:36:17 68° NE 04:39:35 10° SE
Cosmos 2369 3.5 04:33:09 10° SSW 04:38:45 68° WNW 04:44:21 10° N
Ariane H10 2.5 04:38:52 77° SSW 04:38:56 78° S 04:45:37 10° E
SJ-6F 4.4 04:36:20 10° NNE 04:40:23 80° ESE 04:44:28 10° S
Delta 2 Rocket 3.7 04:40:57 34° WSW 04:43:45 84° NNW 04:49:45 10° ENE
SWIFT 3.6 04:45:05 27° NNW 04:46:09 31° NNE 04:49:56 10° E
Cosmos 962 Rocket 4.3 04:41:53 10° N 04:47:58 79° W 04:54:07 10° S
CZ-4B R/B 3.7 04:46:27 10° N 04:51:32 37° WNW 04:56:41 10° SW
Cosmos 2181 Rocket 4.5 04:46:00 10° SSW 04:51:39 35° W 04:57:13 10° NNW
Ariane H10+ 1.4 04:52:36 32° E 04:52:36 32° E 04:53:51 10° E
CZ-4B R/B 4.3 04:51:30 10° N 04:55:47 47° WNW 05:00:01 10° SSW
USA 81 4.2 04:51:05 10° SSW 04:56:08 48° W 05:01:11 10° NNW
Cosmos 2278 4.1 04:56:34 10° SW 05:01:47 39° WNW 05:07:01 10° N
Okean-O 2.7 04:58:57 10° NNE 05:03:23 83° ESE 05:07:48 10° S
Meteor 1-31 Rocket 3.8 05:03:37 10° NNW 05:07:41 24° W 05:10:04 10° SW
Ariane H10 1.8 05:06:22 42° W 05:07:00 90° WSW 05:11:24 10° E
ATLAS 2AS CENTAUR R/B 2.9 05:01:41 10° SW 05:08:37 59° WNW 05:16:15 10° NNE
Meteor 2-21 Rocket 4.4 05:03:35 10° N 05:09:40 88° W 05:15:50 10° S
Cosmos 2341 Rocket 4.3 05:05:40 10° NNW 05:11:42 47° W 05:17:44 10° SSW
CZ-2C R/B 4.5 05:08:52 10° SSE 05:13:33 59° ENE 05:18:13 10° N
Cosmos 1842 Rocket 4.4 05:10:15 10° N 05:14:27 52° E 05:18:40 10° SSE
Landsat 4 4.2 05:13:56 10° SSE 05:17:41 63° ENE 05:21:25 10° N
Cosmos 1076 Rocket 4.1 05:15:58 10° S 05:20:17 63° E 05:24:34 10° NNE
USA 267 4.2 05:18:02 10° SE 05:24:15 47° NE 05:30:28 10° NNW
Cosmos 1269 Rocket 4.4 05:20:26 10° N 05:25:41 68° ENE 05:30:57 10° SSE
Meteor 1-28 Rocket 3.6 05:23:56 10° SSE 05:27:41 67° ENE 05:31:27 10° N
USA 116 3.6 05:24:47 10° SSE 05:28:00 72° ENE 05:31:30 10° N
Okean 3 Rocket 3.5 05:25:03 10° S 05:29:33 76° W 05:34:01 10° N
Cosmos 2227 Rocket 4.5 05:25:40 10° NNE 05:30:20 27° ENE 05:35:00 10° SE
Cosmos 2360 4.3 05:24:55 10° SSW 05:30:35 84° ESE 05:36:16 10° NNE
GPS 2-12 Rocket1 3.5 05:30:14 10° WSW 05:34:58 64° SSE 05:39:45 10° ENE
PAYLOAD A 3.9 05:30:23 10° N 05:35:15 73° WNW 05:40:18 10° SSW
Delta 128 3.9 05:31:14 10° NW 05:36:17 67° NNE 05:40:48 10° ESE
NATO 3D Rocket 3.6 05:35:03 10° WSW 05:39:58 72° NNW 05:46:21 10° ENE
Ariane H10 4.1 05:21:30 10° W 05:40:58 63° S 05:44:46 10° ESE
CZ-2C R/B 2.7 05:36:09 10° NNE 05:41:17 84° ESE 05:46:29 10° S
Ariane H10 3.0 05:40:21 10° W 05:49:02 74° S 05:52:06 10° E
